Location: Astronomy Club of Akron Observatory
(40.9700°N, 81.5606°W)
Time: 00:03:12
(UTC-04:00)

Cosmos 1441 Rocket - Visible Passes

Search period start: 29 July 2016 00:00
Search period end: 08 August 2016 00:00
Orbit: 500 x 545 km, 81.1° (Epoch: 27 July)

Date Brightness Start Highest point End Pass type
(mag) Time Alt. Az. Time Alt. Az. Time Alt. Az.
29 Jul 4.8 03:33:15 10° N 03:36:55 34° ENE 03:38:27 25° ESE visible
29 Jul 5.0 05:10:06 10° NW 05:12:37 16° W 05:13:34 15° WSW visible
30 Jul 4.9 03:20:24 10° NNE 03:23:59 30° ENE 03:25:00 27° ESE visible
30 Jul 4.9 04:56:58 10° NW 04:59:44 18° W 05:00:07 18° W visible
31 Jul 5.0 03:07:34 10° NNE 03:11:02 27° ENE 03:11:37 26° E visible
31 Jul 4.8 04:43:52 10° NW 04:46:43 20° W 04:46:43 20° W visible
01 Aug 5.2 02:54:44 10° NNE 02:58:04 24° ENE 02:58:16 24° ENE visible
01 Aug 4.8 04:30:47 10° NW 04:33:23 22° WNW 04:33:23 22° WNW visible
02 Aug 5.4 02:41:56 10° NNE 02:44:58 22° ENE 02:44:58 22° ENE visible
02 Aug 4.8 04:17:43 10° NW 04:20:05 23° WNW 04:20:05 23° WNW visible
03 Aug 5.6 02:29:09 10° NNE 02:31:43 19° ENE 02:31:43 19° ENE visible
03 Aug 4.9 04:04:41 10° NNW 04:06:50 23° WNW 04:06:50 23° WNW visible
04 Aug 5.8 02:16:23 10° NNE 02:18:30 17° ENE 02:18:30 17° ENE visible
04 Aug 5.0 03:51:39 10° NNW 03:53:37 23° NW 03:53:37 23° NW visible
05 Aug 6.0 02:03:39 10° NNE 02:05:19 15° NE 02:05:19 15° NE visible
05 Aug 5.1 03:38:39 10° NNW 03:40:26 23° NW 03:40:26 23° NW visible
06 Aug 6.1 01:50:58 10° NE 01:52:09 13° NE 01:52:09 13° NE visible
06 Aug 5.3 03:25:39 10° NNW 03:27:17 22° NW 03:27:17 22° NW visible
07 Aug 6.3 01:38:21 10° NE 01:39:01 12° NE 01:39:01 12° NE visible
07 Aug 5.4 03:12:39 10° NNW 03:14:09 21° NNW 03:14:09 21° NNW visible
